QPF
0.00 0.00 0.00 0.00 0.00 0.01 0.02 0.02 0.03 0.02 0.01 0.00 0.00 0.00 0.00 0.00 0.01 0.00 0.00 0.00 0.01 0.01 0.01 0.01 0.01 0.01 0.01 0.01 0.01 0.01 0.00 0.00 0.00 0.00 0.01 0.01 0.01 0.01 0.01 0.00 0.00 0.00 0.00
0.00 0.00 0.00 0.00 0.01 0.02 0.02 0.02 0.02 0.01 0.01 0.00 0.00 0.00 0.00 0.00 0.00 0.00 0.00 0.00 0.00 0.01 0.01 0.01 0.01 0.01 0.01 0.01 0.00 0.00 0.00 0.00 0.00 0.00 0.00 0.00 0.00 0.01 0.00 0.00 0.00 0.00 0.00
0.00 0.00 0.00 0.00 0.01 0.02 0.02 0.02 0.01 0.01 0.01 0.00 0.00 0.00 0.00 0.00 0.00 0.00 0.00 0.00 0.00 0.00 0.00 0.00 0.01 0.01 0.01 0.00 0.00 0.00 0.00 0.00 0.00 0.00 0.00 0.00 0.00 0.01 0.01 0.00 0.00 0.00 0.00
0.00 0.00 0.00 0.00 0.01 0.01 0.01 0.01 0.01 0.01 0.01 0.00 0.00 0.00 0.00 0.00 0.00 0.00 0.00 0.00 0.00 0.00 0.00 0.00 0.00 0.00 0.00 0.00 0.00 0.00 0.00 0.00 0.00 0.00 0.00 0.00 0.00 0.00 0.00 0.00 0.00 0.00 0.00
0.00 0.00 0.00 0.00 0.01 0.01 0.01 0.01 0.01 0.01 0.01 0.00 0.00 0.00 0.00 0.00 0.00 0.00 0.00 0.00 0.00 0.00 0.00 0.00 0.00 0.00 0.00 0.00 0.00 0.00 0.00 0.00 0.00 0.00 0.00 0.00 0.00 0.00 0.00 0.00 0.00 0.00 0.00
0.00 0.00 0.00 0.00 0.01 0.01 0.01 0.01 0.01 0.01 0.01 0.00 0.00 0.00 0.00 0.00 0.00 0.00 0.00 0.00 0.00 0.00 0.00 0.00 0.00 0.00 0.00 0.00 0.00 0.00 0.00 0.00 0.00 0.00 0.00 0.00 0.00 0.00 0.00 0.00 0.00 0.00 0.00
0.00 0.00 0.00 0.00 0.01 0.01 0.01 0.01 0.01 0.01 0.01 0.01 0.00 0.00 0.00 0.00 0.00 0.00 0.00 0.00 0.00 0.00 0.00 0.00 0.00 0.00 0.00 0.00 0.00 0.00 0.00 0.00 0.00 0.00 0.00 0.00 0.00 0.00 0.00 0.00 0.00 0.00 0.00
0.00 0.00 0.00 0.00 0.01 0.01 0.01 0.01 0.00 0.01 0.00 0.01 0.00 0.00 0.00 0.00 0.00 0.00 0.00 0.00 0.00 0.00 0.00 0.00 0.00 0.00 0.00 0.00 0.00 0.00 0.00 0.00 0.00 0.00 0.00 0.00 0.00 0.00 0.00 0.00 0.00 0.00 0.00
0.00 0.00 0.00 0.00 0.00 0.01 0.01 0.01 0.00 0.00 0.01 0.00 0.00 0.00 0.00 0.00 0.00 0.00 0.00 0.00 0.00 0.00 0.00 0.00 0.00 0.00 0.00 0.00 0.00 0.00 0.00 0.00 0.00 0.00 0.00 0.00 0.00 0.00 0.00 0.00 0.00 0.00 0.00
0.00 0.00 0.00 0.00 0.00 0.00 0.01 0.01 0.00 0.00 0.00 0.00 0.01 0.01 0.00 0.00 0.00 0.00 0.00 0.00 0.00 0.00 0.00 0.00 0.00 0.00 0.00 0.00 0.00 0.00 0.00 0.00 0.00 0.00 0.00 0.00 0.00 0.00 0.00 0.00 0.00 0.00 0.00
0.00 0.00 0.00 0.00 0.00 0.00 0.00 0.00 0.00 0.00 0.01 0.00 0.00 0.00 0.00 0.00 0.00 0.00 0.00 0.00 0.00 0.00 0.00 0.00 0.00 0.00 0.00 0.00 0.00 0.00 0.00 0.00 0.00 0.00 0.00 0.00 0.00 0.00 0.00 0.00 0.00 0.00 0.01
0.00 0.00 0.00 0.00 0.00 0.00 0.00 0.00 0.00 0.00 0.00 0.00 0.00 0.00 0.00 0.01 0.01 0.00 0.00 0.00 0.00 0.00 0.00 0.00 0.00 0.00 0.00 0.00 0.00 0.00 0.00 0.00 0.00 0.00 0.00 0.00 0.00 0.00 0.00 0.00 0.00 0.01 0.01
0.00 0.00 0.00 0.00 0.00 0.00 0.00 0.00 0.00 0.00 0.01 0.01 0.00 0.00 0.01 0.01 0.01 0.00 0.00 0.00 0.00 0.00 0.00 0.00 0.00 0.00 0.00 0.00 0.00 0.00 0.00 0.00 0.00 0.00 0.00 0.00 0.00 0.00 0.00 0.00 0.00 0.01 0.01
0.00 0.00 0.00 0.00 0.00 0.00 0.00 0.00 0.00 0.00 0.01 0.00 0.00 0.00 0.00 0.01 0.01 0.00 0.00 0.00 0.00 0.00 0.00 0.00 0.00 0.00 0.00 0.00 0.00 0.00 0.00 0.00 0.00 0.00 0.00 0.00 0.00 0.00 0.00 0.00 0.00 0.01 0.01
0.00 0.00 0.00 0.00 0.00 0.00 0.00 0.00 0.00 0.00 0.00 0.00 0.00 0.00 0.00 0.00 0.00 0.00 0.00 0.00 0.00 0.00 0.00 0.00 0.00 0.00 0.00 0.00 0.00 0.00 0.00 0.00 0.00 0.00 0.00 0.00 0.00 0.00 0.00 0.00 0.00 0.01 0.01
0.00 0.00 0.00 0.00 0.00 0.00 0.00 0.00 0.00 0.00 0.00 0.00 0.00 0.00 0.00 0.00 0.00 0.00 0.00 0.00 0.00 0.00 0.00 0.00 0.00 0.00 0.00 0.00 0.00 0.00 0.00 0.00 0.00 0.00 0.00 0.00 0.00 0.00 0.00 0.00 0.00 0.00 0.00
0.00 0.00 0.00 0.00 0.00 0.00 0.00 0.00 0.00 0.00 0.00 0.00 0.00 0.00 0.00 0.00 0.00 0.00 0.01 0.01 0.00 0.00 0.00 0.00 0.00 0.00 0.00 0.00 0.00 0.00 0.00 0.00 0.00 0.00 0.00 0.00 0.00 0.00 0.00 0.00 0.00 0.00 0.00
0.00 0.00 0.00 0.00 0.00 0.00 0.00 0.00 0.00 0.00 0.00 0.00 0.00 0.00 0.00 0.00 0.00 0.00 0.01 0.01 0.01 0.01 0.00 0.00 0.01 0.01 0.00 0.00 0.00 0.00 0.00 0.00 0.00 0.00 0.00 0.00 0.00 0.00 0.00 0.00 0.00 0.00 0.00
0.00 0.00 0.00 0.00 0.00 0.00 0.00 0.00 0.00 0.00 0.00 0.00 0.00 0.00 0.00 0.00 0.00 0.00 0.01 0.01 0.01 0.01 0.00 0.00 0.00 0.00 0.00 0.00 0.00 0.00 0.00 0.00 0.00 0.00 0.00 0.00 0.00 0.00 0.00 0.00 0.00 0.00 0.00
0.00 0.00 0.00 0.00 0.00 0.00 0.00 0.00 0.00 0.01 0.01 0.01 0.01 0.00 0.00 0.00 0.00 0.01 0.01 0.01 0.01 0.01 0.00 0.00 0.00 0.00 0.00 0.00 0.00 0.00 0.00 0.00 0.00 0.00 0.00 0.00 0.00 0.00 0.00 0.00 0.00 0.00 0.00
0.00 0.00 0.00 0.00 0.00 0.00 0.00 0.00 0.01 0.01 0.01 0.01 0.01 0.00 0.00 0.00 0.00 0.01 0.01 0.01 0.01 0.01 0.01 0.00 0.00 0.00 0.00 0.00 0.00 0.00 0.00 0.00 0.00 0.00 0.00 0.00 0.00 0.00 0.00 0.00 0.00 0.00 0.00
0.00 0.00 0.00 0.00 0.00 0.00 0.00 0.00 0.00 0.00 0.01 0.01 0.00 0.00 0.00 0.00 0.00 0.01 0.01 0.01 0.00 0.00 0.00 0.00 0.00 0.00 0.00 0.00 0.00 0.00 0.00 0.00 0.00 0.00 0.00 0.00 0.00 0.00 0.00 0.00 0.00 0.00 0.00
0.00 0.00 0.00 0.00 0.00 0.00 0.00 0.00 0.00 0.00 0.00 0.00 0.00 0.00 0.00 0.00 0.00 0.00 0.00 0.00 0.00 0.00 0.00 0.00 0.00 0.00 0.00 0.00 0.00 0.00 0.00 0.00 0.00 0.00 0.00 0.00 0.00 0.00 0.00 0.00 0.00 0.00 0.00
0.00 0.00 0.00 0.00 0.00 0.00 0.00 0.00 0.00 0.00 0.00 0.00 0.00 0.00 0.00 0.00 0.00 0.00 0.00 0.00 0.00 0.00 0.00 0.00 0.00 0.00 0.00 0.00 0.00 0.00 0.00 0.00 0.00 0.00 0.00 0.00 0.00 0.00 0.00 0.00 0.00 0.00 0.00
0.00 0.00 0.00 0.00 0.00 0.00 0.00 0.00 0.00 0.00 0.00 0.00 0.00 0.00 0.00 0.00 0.00 0.00 0.00 0.00 0.00 0.00 0.00 0.00 0.00 0.00 0.00 0.00 0.00 0.00 0.00 0.00 0.00 0.00 0.00 0.00 0.00 0.00 0.00 0.00 0.00 0.00 0.00
0.00 0.00 0.00 0.00 0.00 0.00 0.00 0.00 0.00 0.00 0.00 0.00 0.00 0.00 0.00 0.00 0.00 0.00 0.00 0.00 0.00 0.00 0.00 0.00 0.00 0.00 0.00 0.00 0.00 0.00 0.00 0.00 0.00 0.00 0.00 0.00 0.00 0.00 0.00 0.00 0.00 0.00 0.00
MSLP
1014.40 1014.47 1014.59 1014.83 1015.18 1015.63 1016.14 1016.64 1017.07 1017.41 1017.63 1017.77 1017.85 1017.91 1017.99 1018.10 1018.23 1018.38 1018.52 1018.63 1018.73 1018.80 1018.86 1018.94 1019.02 1019.12 1019.22 1019.29 1019.33 1019.32 1019.27 1019.17 1019.06 1018.95 1018.86 1018.80 1018.78 1018.78 1018.79 1018.80 1018.79 1018.76 1018.70
1013.99 1014.10 1014.30 1014.63 1015.09 1015.64 1016.22 1016.76 1017.21 1017.54 1017.76 1017.90 1017.99 1018.09 1018.22 1018.38 1018.58 1018.78 1018.96 1019.11 1019.22 1019.30 1019.37 1019.45 1019.54 1019.64 1019.73 1019.80 1019.83 1019.81 1019.73 1019.62 1019.50 1019.39 1019.31 1019.27 1019.26 1019.26 1019.27 1019.27 1019.25 1019.21 1019.15
1013.59 1013.76 1014.04 1014.48 1015.04 1015.68 1016.33 1016.90 1017.37 1017.70 1017.92 1018.06 1018.18 1018.32 1018.49 1018.71 1018.96 1019.20 1019.41 1019.57 1019.68 1019.76 1019.82 1019.89 1019.97 1020.06 1020.14 1020.20 1020.22 1020.18 1020.10 1020.00 1019.89 1019.80 1019.75 1019.73 1019.74 1019.75 1019.76 1019.75 1019.71 1019.66 1019.58
1013.26 1013.50 1013.88 1014.41 1015.07 1015.78 1016.47 1017.07 1017.55 1017.88 1018.10 1018.26 1018.40 1018.57 1018.79 1019.06 1019.34 1019.60 1019.82 1019.98 1020.09 1020.15 1020.20 1020.26 1020.32 1020.39 1020.46 1020.51 1020.52 1020.48 1020.41 1020.32 1020.23 1020.18 1020.16 1020.17 1020.19 1020.22 1020.22 1020.20 1020.14 1020.06 1019.98
1013.04 1013.35 1013.82 1014.44 1015.17 1015.93 1016.64 1017.25 1017.72 1018.05 1018.28 1018.45 1018.62 1018.83 1019.09 1019.38 1019.69 1019.97 1020.19 1020.34 1020.43 1020.48 1020.51 1020.55 1020.60 1020.66 1020.73 1020.76 1020.77 1020.74 1020.68 1020.61 1020.55 1020.53 1020.53 1020.56 1020.60 1020.62 1020.62 1020.57 1020.49 1020.39 1020.30
1012.92 1013.31 1013.86 1014.55 1015.32 1016.10 1016.82 1017.42 1017.87 1018.19 1018.42 1018.61 1018.81 1019.06 1019.36 1019.68 1020.00 1020.28 1020.49 1020.63 1020.70 1020.74 1020.77 1020.80 1020.85 1020.91 1020.97 1021.01 1021.02 1020.99 1020.94 1020.89 1020.85 1020.85 1020.87 1020.91 1020.94 1020.95 1020.92 1020.84 1020.73 1020.61 1020.51
1012.90 1013.36 1013.98 1014.71 1015.50 1016.27 1016.96 1017.53 1017.95 1018.26 1018.50 1018.72 1018.96 1019.25 1019.58 1019.93 1020.26 1020.54 1020.74 1020.87 1020.93 1020.96 1020.99 1021.03 1021.09 1021.16 1021.23 1021.27 1021.28 1021.26 1021.21 1021.17 1021.14 1021.13 1021.16 1021.18 1021.20 1021.18 1021.11 1021.00 1020.86 1020.71 1020.60
1012.93 1013.45 1014.11 1014.86 1015.64 1016.38 1017.03 1017.55 1017.95 1018.25 1018.51 1018.77 1019.06 1019.40 1019.77 1020.14 1020.48 1020.75 1020.94 1021.06 1021.12 1021.16 1021.20 1021.26 1021.34 1021.43 1021.50 1021.55 1021.56 1021.53 1021.48 1021.43 1021.39 1021.38 1021.38 1021.39 1021.38 1021.33 1021.22 1021.07 1020.89 1020.72 1020.59
1012.95 1013.52 1014.20 1014.95 1015.70 1016.39 1016.99 1017.47 1017.85 1018.16 1018.45 1018.76 1019.11 1019.50 1019.91 1020.30 1020.65 1020.92 1021.10 1021.21 1021.27 1021.32 1021.38 1021.47 1021.57 1021.68 1021.77 1021.81 1021.82 1021.78 1021.71 1021.65 1021.59 1021.57 1021.55 1021.54 1021.50 1021.41 1021.27 1021.09 1020.88 1020.69 1020.53
1012.93 1013.52 1014.20 1014.93 1015.64 1016.28 1016.83 1017.28 1017.66 1017.99 1018.33 1018.70 1019.11 1019.56 1020.01 1020.42 1020.77 1021.03 1021.21 1021.31 1021.38 1021.44 1021.53 1021.63 1021.76 1021.88 1021.97 1022.02 1022.01 1021.95 1021.87 1021.79 1021.73 1021.69 1021.66 1021.64 1021.58 1021.48 1021.32 1021.11 1020.88 1020.66 1020.49
1012.80 1013.40 1014.08 1014.77 1015.44 1016.04 1016.56 1017.00 1017.39 1017.76 1018.16 1018.60 1019.08 1019.58 1020.06 1020.49 1020.83 1021.09 1021.25 1021.35 1021.42 1021.50 1021.60 1021.73 1021.87 1022.00 1022.09 1022.12 1022.10 1022.03 1021.93 1021.84 1021.77 1021.73 1021.72 1021.70 1021.65 1021.55 1021.39 1021.18 1020.93 1020.70 1020.50
1012.54 1013.15 1013.81 1014.47 1015.11 1015.68 1016.18 1016.63 1017.06 1017.49 1017.95 1018.46 1019.00 1019.54 1020.04 1020.48 1020.82 1021.06 1021.21 1021.30 1021.38 1021.47 1021.58 1021.72 1021.87 1022.00 1022.08 1022.10 1022.06 1021.98 1021.88 1021.78 1021.73 1021.71 1021.72 1021.73 1021.71 1021.64 1021.50 1021.30 1021.06 1020.81 1020.60
1012.15 1012.75 1013.39 1014.04 1014.65 1015.22 1015.73 1016.21 1016.68 1017.18 1017.71 1018.27 1018.86 1019.42 1019.94 1020.37 1020.70 1020.92 1021.07 1021.16 1021.25 1021.35 1021.48 1021.63 1021.78 1021.90 1021.97 1021.97 1021.91 1021.82 1021.72 1021.64 1021.60 1021.62 1021.67 1021.73 1021.76 1021.74 1021.64 1021.47 1021.25 1021.01 1020.78
1011.62 1012.21 1012.85 1013.49 1014.10 1014.68 1015.22 1015.75 1016.28 1016.83 1017.42 1018.03 1018.64 1019.22 1019.73 1020.15 1020.46 1020.68 1020.83 1020.94 1021.05 1021.17 1021.31 1021.47 1021.62 1021.73 1021.78 1021.76 1021.69 1021.59 1021.49 1021.43 1021.43 1021.49 1021.59 1021.71 1021.80 1021.83 1021.79 1021.67 1021.48 1021.25 1021.02
1010.98 1011.57 1012.21 1012.85 1013.48 1014.09 1014.68 1015.26 1015.85 1016.46 1017.08 1017.72 1018.34 1018.91 1019.40 1019.81 1020.12 1020.34 1020.51 1020.65 1020.79 1020.94 1021.11 1021.28 1021.42 1021.52 1021.56 1021.52 1021.44 1021.34 1021.25 1021.21 1021.23 1021.33 1021.48 1021.65 1021.80 1021.89 1021.91 1021.84 1021.69 1021.50 1021.28
1010.27 1010.86 1011.50 1012.16 1012.82 1013.48 1014.12 1014.76 1015.41 1016.05 1016.70 1017.34 1017.94 1018.49 1018.97 1019.36 1019.68 1019.93 1020.13 1020.32 1020.51 1020.71 1020.91 1021.10 1021.25 1021.34 1021.36 1021.32 1021.23 1021.13 1021.05 1021.02 1021.06 1021.18 1021.36 1021.56 1021.75 1021.89 1021.96 1021.95 1021.85 1021.70 1021.52
1009.52 1010.11 1010.76 1011.45 1012.15 1012.86 1013.57 1014.26 1014.95 1015.62 1016.27 1016.90 1017.48 1018.00 1018.46 1018.85 1019.18 1019.47 1019.73 1019.99 1020.24 1020.50 1020.74 1020.95 1021.12 1021.22 1021.24 1021.19 1021.11 1021.01 1020.94 1020.91 1020.96 1021.08 1021.26 1021.47 1021.67 1021.84 1021.94 1021.98 1021.94 1021.85 1021.71
1008.76 1009.35 1010.02 1010.74 1011.50 1012.27 1013.03 1013.78 1014.50 1015.18 1015.82 1016.42 1016.96 1017.46 1017.90 1018.30 1018.66 1019.01 1019.34 1019.67 1020.00 1020.32 1020.61 1020.86 1021.04 1021.15 1021.19 1021.16 1021.08 1021.00 1020.93 1020.91 1020.95 1021.05 1021.20 1021.39 1021.58 1021.74 1021.87 1021.95 1021.96 1021.93 1021.85
1008.02 1008.62 1009.30 1010.06 1010.87 1011.70 1012.51 1013.30 1014.05 1014.74 1015.36 1015.93 1016.44 1016.91 1017.35 1017.76 1018.17 1018.58 1018.99 1019.40 1019.80 1020.18 1020.51 1020.79 1021.00 1021.14 1021.20 1021.20 1021.16 1021.10 1021.05 1021.03 1021.06 1021.12 1021.23 1021.37 1021.51 1021.66 1021.78 1021.88 1021.94 1021.97 1021.96
1007.33 1007.93 1008.64 1009.43 1010.29 1011.16 1012.03 1012.85 1013.62 1014.30 1014.91 1015.45 1015.94 1016.39 1016.83 1017.28 1017.73 1018.21 1018.69 1019.17 1019.63 1020.06 1020.43 1020.74 1020.98 1021.14 1021.24 1021.29 1021.30 1021.30 1021.28 1021.28 1021.29 1021.32 1021.37 1021.44 1021.52 1021.62 1021.72 1021.83 1021.92 1022.00 1022.04
1006.70 1007.31 1008.04 1008.86 1009.75 1010.67 1011.57 1012.42 1013.19 1013.88 1014.47 1015.00 1015.47 1015.93 1016.38 1016.86 1017.37 1017.90 1018.44 1018.98 1019.48 1019.94 1020.34 1020.67 1020.94 1021.14 1021.30 1021.41 1021.50 1021.55 1021.60 1021.62 1021.63 1021.63 1021.62 1021.62 1021.64 1021.67 1021.74 1021.82 1021.93 1022.04 1022.13
1006.15 1006.77 1007.51 1008.35 1009.27 1010.21 1011.13 1012.00 1012.78 1013.46 1014.06 1014.58 1015.05 1015.52 1016.01 1016.52 1017.08 1017.66 1018.25 1018.82 1019.36 1019.83 1020.24 1020.58 1020.87 1021.12 1021.34 1021.53 1021.70 1021.85 1021.96 1022.03 1022.06 1022.04 1021.99 1021.93 1021.87 1021.84 1021.84 1021.90 1021.99 1022.11 1022.23
1005.69 1006.32 1007.07 1007.92 1008.84 1009.78 1010.70 1011.57 1012.36 1013.04 1013.64 1014.17 1014.67 1015.17 1015.70 1016.26 1016.86 1017.49 1018.11 1018.71 1019.25 1019.72 1020.13 1020.48 1020.78 1021.07 1021.35 1021.63 1021.89 1022.14 1022.34 1022.47 1022.54 1022.52 1022.45 1022.33 1022.21 1022.10 1022.05 1022.05 1022.12 1022.22 1022.33
1005.33 1005.98 1006.72 1007.55 1008.45 1009.37 1010.28 1011.14 1011.92 1012.61 1013.22 1013.78 1014.32 1014.86 1015.43 1016.05 1016.70 1017.37 1018.02 1018.62 1019.16 1019.62 1020.02 1020.37 1020.69 1021.02 1021.35 1021.71 1022.06 1022.40 1022.69 1022.90 1023.01 1023.02 1022.93 1022.78 1022.61 1022.45 1022.33 1022.28 1022.29 1022.34 1022.42
1005.10 1005.74 1006.46 1007.25 1008.10 1008.98 1009.86 1010.69 1011.46 1012.16 1012.79 1013.38 1013.97 1014.56 1015.20 1015.87 1016.57 1017.27 1017.94 1018.56 1019.09 1019.55 1019.94 1020.29 1020.62 1020.97 1021.36 1021.77 1022.20 1022.62 1022.98 1023.26 1023.42 1023.46 1023.39 1023.23 1023.03 1022.83 1022.65 1022.54 1022.48 1022.48 1022.49
1004.99 1005.61 1006.28 1007.01 1007.80 1008.62 1009.44 1010.23 1010.99 1011.69 1012.34 1012.98 1013.61 1014.26 1014.96 1015.68 1016.43 1017.18 1017.88 1018.50 1019.05 1019.51 1019.90 1020.25 1020.59 1020.96 1021.37 1021.82 1022.30 1022.77 1023.19 1023.52 1023.73 1023.81 1023.76 1023.62 1023.41 1023.18 1022.97 1022.81 1022.69 1022.61 1022.55
Thickness
5748 5746 5742 5740 5738 5736 5735 5733 5731 5730 5728 5727 5726 5725 5724 5723 5722 5721 5721 5720 5719 5719 5718 5717 5716 5715 5714 5713 5711 5710 5710 5709 5710 5709 5709 5709 5708 5708 5707 5707 5707 5707 5707
5751 5745 5741 5739 5736 5734 5732 5730 5728 5726 5725 5723 5722 5720 5719 5718 5717 5716 5715 5714 5713 5713 5712 5711 5710 5708 5707 5706 5705 5704 5703 5703 5703 5703 5702 5701 5701 5701 5700 5700 5700 5699 5699
5750 5744 5739 5737 5734 5732 5730 5727 5725 5723 5721 5719 5718 5716 5714 5713 5712 5711 5710 5709 5708 5707 5706 5704 5703 5702 5701 5699 5698 5697 5697 5697 5697 5697 5695 5694 5694 5693 5693 5693 5692 5692 5692
5749 5742 5738 5735 5732 5729 5727 5724 5722 5719 5717 5715 5713 5712 5710 5708 5707 5706 5704 5703 5702 5701 5699 5698 5697 5696 5694 5693 5692 5691 5690 5691 5691 5690 5688 5687 5687 5687 5686 5686 5685 5685 5684
5747 5741 5736 5732 5729 5727 5724 5721 5718 5716 5714 5712 5709 5707 5705 5703 5702 5700 5699 5697 5696 5695 5693 5692 5691 5690 5688 5687 5685 5685 5684 5684 5684 5683 5682 5680 5680 5680 5679 5678 5678 5678 5677
5744 5739 5734 5730 5727 5724 5721 5718 5715 5713 5710 5708 5705 5703 5701 5698 5696 5695 5693 5692 5690 5689 5687 5686 5685 5683 5682 5681 5680 5679 5678 5678 5678 5677 5675 5674 5673 5673 5673 5672 5672 5671 5671
5743 5738 5731 5728 5724 5721 5718 5715 5712 5709 5706 5704 5701 5699 5696 5694 5692 5690 5688 5686 5685 5683 5682 5680 5679 5678 5676 5675 5674 5673 5672 5672 5672 5671 5669 5667 5667 5667 5667 5666 5666 5665 5665
5742 5736 5729 5725 5722 5719 5716 5712 5709 5706 5703 5700 5697 5695 5692 5690 5687 5685 5683 5681 5679 5678 5676 5675 5673 5672 5671 5669 5668 5667 5667 5667 5666 5665 5663 5661 5660 5660 5660 5660 5659 5659 5659
5741 5735 5727 5723 5719 5716 5713 5710 5706 5703 5700 5697 5694 5691 5688 5685 5683 5680 5678 5676 5674 5672 5671 5669 5668 5666 5665 5664 5663 5662 5662 5661 5661 5660 5658 5655 5654 5654 5654 5654 5653 5653 5653
5739 5734 5727 5722 5718 5714 5710 5707 5704 5700 5697 5694 5691 5687 5684 5682 5679 5676 5673 5671 5669 5667 5665 5664 5662 5661 5659 5658 5657 5657 5656 5656 5656 5655 5652 5649 5648 5648 5648 5648 5647 5647 5647
5735 5733 5727 5723 5718 5713 5709 5704 5701 5697 5694 5691 5688 5684 5681 5678 5675 5672 5670 5667 5664 5662 5660 5659 5658 5656 5655 5653 5652 5651 5651 5651 5651 5650 5647 5644 5642 5641 5641 5641 5641 5641 5641
5731 5731 5728 5724 5719 5714 5709 5703 5699 5695 5691 5688 5685 5681 5678 5675 5672 5669 5666 5663 5660 5658 5656 5654 5653 5652 5651 5649 5647 5646 5646 5646 5645 5644 5641 5639 5637 5635 5635 5635 5635 5635 5635
5732 5730 5729 5725 5720 5714 5709 5703 5699 5694 5690 5686 5683 5679 5676 5672 5669 5665 5662 5659 5656 5654 5652 5650 5649 5648 5647 5646 5644 5642 5641 5640 5639 5638 5635 5633 5631 5629 5629 5628 5628 5628 5628
5732 5730 5728 5725 5720 5714 5709 5703 5698 5694 5689 5685 5681 5677 5673 5669 5665 5662 5658 5656 5653 5651 5649 5647 5645 5644 5643 5641 5640 5638 5637 5635 5634 5633 5630 5628 5626 5624 5623 5622 5622 5621 5621
5733 5730 5727 5724 5719 5714 5708 5703 5698 5693 5688 5683 5679 5674 5670 5666 5662 5658 5655 5652 5649 5647 5645 5642 5641 5639 5638 5636 5634 5633 5631 5630 5629 5627 5625 5623 5621 5618 5616 5615 5615 5614 5614
5735 5730 5727 5722 5718 5712 5707 5702 5697 5691 5686 5681 5676 5671 5667 5662 5658 5655 5651 5648 5645 5643 5640 5637 5635 5634 5632 5630 5628 5627 5626 5624 5623 5621 5620 5618 5615 5612 5610 5608 5607 5606 5605
5736 5732 5726 5721 5716 5710 5704 5699 5694 5689 5683 5678 5673 5668 5663 5659 5654 5650 5647 5643 5640 5638 5635 5632 5629 5627 5625 5623 5622 5620 5619 5617 5616 5614 5613 5611 5609 5606 5602 5600 5598 5597 5595
5736 5731 5725 5719 5713 5708 5702 5696 5691 5686 5681 5675 5670 5664 5659 5655 5650 5646 5642 5638 5635 5632 5629 5626 5623 5620 5618 5616 5614 5613 5612 5611 5609 5608 5606 5604 5601 5598 5595 5592 5589 5587 5586
5735 5730 5723 5717 5711 5705 5699 5693 5688 5683 5677 5672 5667 5661 5656 5650 5646 5641 5637 5633 5630 5626 5622 5619 5616 5613 5610 5608 5607 5606 5605 5604 5602 5600 5598 5596 5593 5590 5587 5584 5581 5578 5576
5732 5728 5722 5714 5707 5702 5695 5688 5683 5678 5673 5668 5663 5657 5652 5646 5641 5636 5632 5628 5624 5620 5616 5612 5609 5606 5603 5600 5599 5598 5598 5598 5595 5593 5590 5587 5584 5581 5578 5575 5573 5570 5567
5727 5722 5717 5710 5703 5697 5691 5684 5678 5672 5667 5662 5658 5653 5647 5642 5636 5631 5627 5623 5618 5614 5609 5606 5602 5598 5595 5592 5589 5588 5590 5591 5588 5584 5581 5578 5575 5572 5569 5566 5563 5560 5558
5721 5716 5712 5706 5699 5694 5688 5682 5675 5668 5662 5657 5651 5646 5641 5636 5631 5626 5621 5616 5612 5607 5603 5599 5594 5590 5587 5584 5579 5576 5574 5576 5576 5575 5571 5568 5565 5561 5558 5555 5552 5550 5547
5714 5710 5706 5701 5695 5689 5682 5675 5667 5660 5653 5647 5643 5639 5635 5630 5625 5620 5614 5610 5605 5600 5595 5591 5587 5582 5577 5574 5571 5566 5560 5557 5557 5560 5560 5557 5554 5550 5547 5544 5541 5539 5536
5707 5703 5699 5694 5689 5683 5677 5669 5662 5656 5649 5644 5638 5633 5628 5624 5619 5613 5608 5603 5598 5593 5588 5584 5579 5574 5570 5564 5561 5558 5553 5549 5544 5542 5544 5544 5543 5539 5536 5533 5530 5528 5525
5699 5695 5691 5686 5681 5676 5671 5664 5657 5651 5645 5638 5632 5626 5621 5616 5611 5606 5601 5596 5590 5586 5581 5576 5571 5566 5561 5556 5551 5547 5543 5539 5535 5529 5527 5528 5528 5527 5525 5522 5520 5518 5515
5689 5685 5681 5677 5672 5668 5663 5657 5651 5645 5639 5632 5625 5619 5613 5608 5603 5599 5594 5589 5583 5578 5573 5568 5562 5557 5552 5547 5542 5537 5532 5527 5523 5518 5515 5514 5514 5515 5514 5512 5510 5508 5505